When you browse on this site, cookies collect data to enhance your experience and personalize the content and advertising you see.
Visit our Privacy Policy to learn more. By continuing to use the site, you agree to this use of cookies and data.

Hourly Weather Kalgoorlie

Today, 12 July, Sunday

Time Temperature Precipitation Wind Pressure Humidity
00:00 +8°C° 0 mm 3 mps 737 mmHg 60%
01:00 +7°C° 0 mm 3 mps 737 mmHg 63%
02:00 +6°C° 0 mm 4 mps 737 mmHg 67%
03:00 +5°C° 0 mm 4 mps 737 mmHg 69%
04:00 +5°C° 0 mm 4 mps 736 mmHg 72%
05:00 +5°C° 0 mm 4 mps 736 mmHg 74%
06:00 +5°C° 0 mm 4 mps 736 mmHg 72%
07:00 +5°C° 0 mm 5 mps 737 mmHg 71%
08:00 +5°C° 0 mm 6 mps 737 mmHg 69%
09:00 +8°C° 0 mm 6 mps 737 mmHg 61%
10:00 +10°C° 0 mm 6 mps 736 mmHg 53%
11:00 +12°C° 0 mm 7 mps 736 mmHg 45%
12:00 +14°C° 0 mm 6 mps 735 mmHg 40%
13:00 +16°C° 0 mm 6 mps 735 mmHg 35%
14:00 +17°C° 0 mm 6 mps 734 mmHg 30%
15:00 +16°C° 0 mm 5 mps 734 mmHg 32%
16:00 +15°C° 0 mm 4 mps 733 mmHg 34%
17:00 +14°C° 0 mm 3 mps 733 mmHg 35%
18:00 +13°C° 0 mm 3 mps 733 mmHg 37%
19:00 +12°C° 0 mm 3 mps 733 mmHg 38%
20:00 +12°C° 0 mm 3 mps 734 mmHg 39%
21:00 +11°C° 0 mm 4 mps 733 mmHg 40%
22:00 +10°C° 0 mm 6 mps 733 mmHg 41%
23:00 +10°C° 0 mm 7 mps 733 mmHg 41%

Tomorrow, 13 July, Monday

Time Temperature Precipitation Wind Pressure Humidity
00:00 +9°C° 0 mm 6 mps 733 mmHg 43%
01:00 +9°C° 0 mm 6 mps 732 mmHg 44%
02:00 +9°C° 0 mm 6 mps 732 mmHg 46%
03:00 +8°C° 0 mm 5 mps 732 mmHg 47%
04:00 +8°C° 0 mm 5 mps 732 mmHg 48%
05:00 +7°C° 0 mm 5 mps 732 mmHg 49%
06:00 +7°C° 0 mm 5 mps 732 mmHg 47%
07:00 +8°C° 0 mm 6 mps 732 mmHg 46%
08:00 +8°C° 0 mm 6 mps 733 mmHg 45%
09:00 +11°C° 0 mm 7 mps 732 mmHg 38%
10:00 +14°C° 0 mm 7 mps 732 mmHg 32%
11:00 +17°C° 0 mm 8 mps 732 mmHg 25%
12:00 +18°C° 0 mm 8 mps 731 mmHg 23%
13:00 +20°C° 0 mm 8 mps 731 mmHg 21%
14:00 +21°C° 0 mm 8 mps 730 mmHg 18%
15:00 +20°C° 0 mm 7 mps 730 mmHg 20%
16:00 +19°C° 0 mm 5 mps 730 mmHg 21%
17:00 +18°C° 0 mm 4 mps 730 mmHg 23%
18:00 +17°C° 0 mm 4 mps 730 mmHg 23%
19:00 +15°C° 0 mm 5 mps 730 mmHg 24%
20:00 +14°C° 0 mm 5 mps 730 mmHg 24%
21:00 +14°C° 0 mm 5 mps 730 mmHg 25%
22:00 +13°C° 0 mm 5 mps 730 mmHg 25%
23:00 +13°C° 0 mm 6 mps 730 mmHg 25%

Day after tomorrow, 14 July, Tuesday

Time Temperature Precipitation Wind Pressure Humidity
00:00 +11°C° 0 mm 6 mps 729 mmHg 25%
01:00 +11°C° 0 mm 6 mps 729 mmHg 25%
02:00 +11°C° 0 mm 7 mps 728 mmHg 25%
03:00 +10°C° 0 mm 7 mps 728 mmHg 25%
04:00 +10°C° 0 mm 8 mps 728 mmHg 24%
05:00 +10°C° 0 mm 8 mps 728 mmHg 24%
06:00 +11°C° 0 mm 9 mps 728 mmHg 23%
07:00 +11°C° 0 mm 9 mps 728 mmHg 22%
08:00 +11°C° 0 mm 10 mps 728 mmHg 21%
09:00 +13°C° 0 mm 10 mps 728 mmHg 31%
10:00 +14°C° 0 mm 10 mps 729 mmHg 41%
11:00 +16°C° 0 mm 10 mps 729 mmHg 51%
12:00 +15°C° 0 mm 9 mps 729 mmHg 54%
13:00 +13°C° 0 mm 8 mps 728 mmHg 58%
14:00 +13°C° 0 mm 6 mps 728 mmHg 61%
15:00 +13°C° 0 mm 5 mps 729 mmHg 62%
16:00 +13°C° 0 mm 4 mps 729 mmHg 63%
17:00 +13°C° 0 mm 3 mps 730 mmHg 63%
18:00 +12°C° 0 mm 3 mps 730 mmHg 66%
19:00 +11°C° 0 mm 3 mps 730 mmHg 68%
20:00 +11°C° 0 mm 3 mps 731 mmHg 71%
21:00 +10°C° 0 mm 3 mps 731 mmHg 73%
22:00 +10°C° 0 mm 3 mps 731 mmHg 76%
23:00 +9°C° 0 mm 2 mps 731 mmHg 78%

15 July, Wednesday

Time Temperature Precipitation Wind Pressure Humidity
00:00 +9°C° 0 mm 2 mps 731 mmHg 79%
01:00 +9°C° 0 mm 2 mps 731 mmHg 80%
02:00 +8°C° 0 mm 2 mps 731 mmHg 82%
03:00 +8°C° 0 mm 2 mps 731 mmHg 83%
04:00 +8°C° 0 mm 2 mps 731 mmHg 85%
05:00 +8°C° 0 mm 2 mps 731 mmHg 86%
06:00 +8°C° 0 mm 2 mps 731 mmHg 85%
07:00 +9°C° 0 mm 2 mps 732 mmHg 83%
08:00 +9°C° 0 mm 2 mps 732 mmHg 81%
09:00 +11°C° 0 mm 3 mps 732 mmHg 72%
10:00 +13°C° 0 mm 4 mps 732 mmHg 63%
11:00 +17°C° 0 mm 4 mps 732 mmHg 54%
12:00 +16°C° 0 mm 5 mps 732 mmHg 51%
13:00 +17°C° 0 mm 5 mps 731 mmHg 48%
14:00 +19°C° 0 mm 6 mps 730 mmHg 44%
15:00 +19°C° 0 mm 5 mps 730 mmHg 47%
16:00 +18°C° 0 mm 4 mps 730 mmHg 49%
17:00 +17°C° 0 mm 3 mps 730 mmHg 51%
18:00 +16°C° 0 mm 2 mps 730 mmHg 55%
19:00 +15°C° 0 mm 2 mps 730 mmHg 59%
20:00 +14°C° 0 mm 1 mps 730 mmHg 64%
21:00 +13°C° 0 mm 1 mps 730 mmHg 66%
22:00 +12°C° 0 mm 1 mps 730 mmHg 69%
23:00 +11°C° 0 mm 0 mps 730 mmHg 72%

16 July, Thursday

Time Temperature Precipitation Wind Pressure Humidity
00:00 +12°C° 0 mm 1 mps 730 mmHg 73%
01:00 +11°C° 0 mm 1 mps 730 mmHg 75%
02:00 +11°C° 0 mm 1 mps 729 mmHg 76%
03:00 +11°C° 0 mm 1 mps 729 mmHg 74%
04:00 +10°C° 0 mm 2 mps 729 mmHg 71%
05:00 +12°C° 0 mm 2 mps 729 mmHg 68%
06:00 +11°C° 0 mm 3 mps 730 mmHg 64%
07:00 +12°C° 0 mm 4 mps 730 mmHg 61%
08:00 +13°C° 0 mm 4 mps 730 mmHg 57%
09:00 +16°C° 0 mm 6 mps 730 mmHg 49%
10:00 +20°C° 0 mm 7 mps 730 mmHg 42%
11:00 +22°C° 0 mm 9 mps 730 mmHg 35%
12:00 +23°C° 0 mm 9 mps 729 mmHg 33%
13:00 +24°C° 0 mm 9 mps 728 mmHg 32%
14:00 +26°C° 0 mm 9 mps 727 mmHg 30%
15:00 +24°C° 0 mm 7 mps 727 mmHg 32%
16:00 +23°C° 0 mm 6 mps 727 mmHg 33%
17:00 +22°C° 0 mm 5 mps 727 mmHg 34%
18:00 +21°C° 0 mm 5 mps 727 mmHg 33%
19:00 +21°C° 0 mm 6 mps 727 mmHg 31%
20:00 +20°C° 0 mm 6 mps 727 mmHg 29%
21:00 +19°C° 0 mm 6 mps 727 mmHg 44%
22:00 +16°C° 0 mm 5 mps 727 mmHg 59%
23:00 +15°C° 0 mm 5 mps 727 mmHg 73%

17 July, Friday

Time Temperature Precipitation Wind Pressure Humidity
00:00 +15°C° 0 mm 4 mps 727 mmHg 76%
01:00 +16°C° 0 mm 3 mps 726 mmHg 78%
02:00 +14°C° 0 mm 3 mps 726 mmHg 80%
03:00 +14°C° 0.1 mm 4 mps 726 mmHg 79%
04:00 +14°C° 0.1 mm 5 mps 726 mmHg 78%
05:00 +14°C° 0.1 mm 6 mps 726 mmHg 77%
06:00 +14°C° 0.4 mm 6 mps 726 mmHg 78%
07:00 +12°C° 0.4 mm 7 mps 727 mmHg 79%
08:00 +12°C° 0.4 mm 7 mps 727 mmHg 80%
09:00 +12°C° 0 mm 7 mps 727 mmHg 72%
10:00 +14°C° 0 mm 7 mps 728 mmHg 65%
11:00 +14°C° 0 mm 6 mps 728 mmHg 57%
12:00 +15°C° 0 mm 6 mps 728 mmHg 52%
13:00 +15°C° 0 mm 7 mps 728 mmHg 46%
14:00 +16°C° 0 mm 7 mps 727 mmHg 41%
15:00 +15°C° 0 mm 7 mps 728 mmHg 42%
16:00 +14°C° 0 mm 6 mps 728 mmHg 43%
17:00 +14°C° 0 mm 6 mps 729 mmHg 45%
18:00 +13°C° 0 mm 5 mps 729 mmHg 47%
19:00 +12°C° 0 mm 5 mps 730 mmHg 50%
20:00 +11°C° 0 mm 4 mps 730 mmHg 52%
21:00 +10°C° 0 mm 4 mps 730 mmHg 53%
22:00 +10°C° 0 mm 4 mps 731 mmHg 53%
23:00 +9°C° 0 mm 3 mps 731 mmHg 53%
Show more